Location: Cheyres
(46.8153°N, 6.7877°E)
Time: 04:14:24
(UTC+00:00)

NOSS 3-4 (C) - Pass Details

Date: 11 May 2021
Orbit: 873 x 1339 km, 63.4° (Epoch: 06 May)

Event Time Altitude Azimuth Distance (km) Brightness Sun altitude
Rises 21:10:26 0° 320° (NW) 3,800 8.3 -17.9°
Reaches altitude 10° 21:12:56 10° 320° (NW) 2,907 7.3 -18.2°
Maximum altitude 21:19:56 90° 41° (NE) 1,169 3.8 -18.8°
Enters shadow 21:24:13 30° 142° (SE) 2,047 4.6 -19.2°
